Weather History for Saginaw, MI

Change the Weather History Date:

Tuesday, December 13, 2011

  Actual Average Record
Temperature  
Mean Temperature 38 °F 28 °F  
Max Temperature 42 °F 34 °F 48 °F (2006)
Min Temperature 34 °F 22 °F 6 °F (2010)
Degree Days  
Heating Degree Days 27    
Month to date heating degree days  
Since 1 July heating degree days  
Cooling Degree Days 0    
Month to date cooling degree days  
Year to date cooling degree days  
Moisture  
Dew Point 28 °F    
Average Humidity 67    
Maximum Humidity 76    
Minimum Humidity 58    
Precipitation  
Precipitation 0.00 in 0.06 in 0.11 in (2000)
Month to date precipitation 0.85  
Year to date precipitation 30.53  
Snow  
Snow 0.00 in - - ()
Month to date snowfall  
Since 1 July snowfall  
Snow Depth -    
Sea Level Pressure  
Sea Level Pressure 30.40 in    
Wind  
Wind Speed 5 mph (SSW)    
Max Wind Speed 8 mph    
Max Gust Speed -    
Visibility 10 miles    
Events      
T = Trace of Precipitation, MM = Missing Value Source: NWS Daily Summary

Daily Weather History Graph

Daily Weather History Graph

Search for Another Location

Airport:

Trip Planner

Search our weather history database for the weather conditions in past years. The results will help you decide how hot, cold, wet, or windy it might be!

Date:

Astronomy

Dec. 13, 2011 Rise Set
Actual Time 8:00 AM EST 5:00 PM EST
Civil Twilight 7:28 AM EST 5:32 PM EST
Nautical Twilight 6:51 AM EST 6:08 PM EST
Astronomical Twilight 6:17 AM EST 6:43 PM EST
Moon 8:17 PM EST (12/13) 10:07 AM EST (12/13)
Length of Visible Light 10h 04m
Length of Day
8h 59m
Waning Gibbous, 90% of the Moon is Illuminated
Dec 13
Waning Gibbous
Dec 17
Last Quarter
Dec 24
New
Jan 1
First Quarter
Jan 9
Full

Hourly Weather History & Observations

Time (EST) Temp. Windchill Dew Point Humidity Pressure Visibility Wind Dir Wind Speed Gust Speed Precip Events Conditions
12:53 AM 37.0 °F 31.0 °F 27.0 °F 67% 30.43 in 10.0 mi SW 8.1 mph - N/A   Overcast
1:53 AM 36.0 °F 31.1 °F 27.0 °F 70% 30.41 in 10.0 mi SSW 5.8 mph - N/A   Overcast
2:53 AM 36.0 °F 30.3 °F 26.1 °F 67% 30.42 in 10.0 mi SSW 6.9 mph - N/A   Overcast
3:53 AM 36.0 °F 32.1 °F 26.1 °F 67% 30.42 in 10.0 mi SW 4.6 mph - N/A   Overcast
4:53 AM 34.0 °F 28.8 °F 26.1 °F 73% 30.41 in 10.0 mi SSW 5.8 mph - N/A   Overcast
5:53 AM 35.6 °F - 26.6 °F 70% 30.39 in 10.0 mi Calm Calm - N/A   Overcast
6:53 AM 34.0 °F 29.8 °F 26.1 °F 73% 30.44 in 9.0 mi SW 4.6 mph - N/A   Overcast
7:53 AM 35.1 °F 31.0 °F 26.1 °F 70% 30.43 in 10.0 mi SSW 4.6 mph - N/A   Overcast
8:53 AM 35.1 °F 30.1 °F 26.1 °F 70% 30.44 in 8.0 mi SSW 5.8 mph - N/A   Overcast
9:53 AM 36.0 °F 32.1 °F 26.1 °F 67% 30.43 in 9.0 mi SSW 4.6 mph - N/A   Overcast
10:53 AM 37.0 °F 34.5 °F 27.0 °F 67% 30.44 in 10.0 mi SSW 3.5 mph - N/A   Overcast
11:53 AM 39.0 °F 34.0 °F 27.0 °F 62% 30.43 in 10.0 mi SW 6.9 mph - N/A   Overcast
12:53 PM 41.0 °F 38.0 °F 28.0 °F 60% 30.39 in 10.0 mi South 4.6 mph - N/A   Overcast
1:53 PM 42.1 °F 39.2 °F 28.0 °F 58% 30.39 in 10.0 mi SSW 4.6 mph - N/A   Overcast
2:53 PM 42.1 °F 40.2 °F 28.0 °F 58% 30.38 in 10.0 mi SSW 3.5 mph - N/A   Overcast
3:53 PM 42.1 °F 40.2 °F 28.0 °F 58% 30.38 in 10.0 mi SSE 3.5 mph - N/A   Overcast
4:53 PM 41.0 °F 38.0 °F 28.0 °F 60% 30.38 in 10.0 mi South 4.6 mph - N/A   Overcast
5:53 PM 39.9 °F - 28.0 °F 63% 30.37 in 10.0 mi Calm Calm - N/A   Overcast
6:53 PM 37.9 °F - 28.0 °F 68% 30.37 in 10.0 mi Calm Calm - N/A   Overcast
7:53 PM 39.0 °F - 28.9 °F 67% 30.36 in 10.0 mi Calm Calm - N/A   Overcast
8:53 PM 39.0 °F - 28.9 °F 67% 30.37 in 10.0 mi Calm Calm - N/A   Overcast
9:53 PM 39.0 °F 36.8 °F 30.9 °F 73% 30.36 in 9.0 mi South 3.5 mph - N/A   Overcast
10:53 PM 39.0 °F 34.8 °F 30.9 °F 73% 30.34 in 8.0 mi SSW 5.8 mph - N/A   Overcast
11:53 PM 37.9 °F 33.5 °F 30.9 °F 76% 30.34 in 7.0 mi SSW 5.8 mph - N/A   Overcast